Regional Weather Roundup
Issued by NWS

Home | Current Version | Previous Version | Text Only | Print | Product List | Glossary Off
Versions: 1 2 3 4 5 6 7 8 9 10 11 12 13 14 15 16 17 18 19 20 21 22 23 24 25 26 27 28 29 30 31 32 33 34 35 36 37 38 39 40 41 42 43 44 45 46 47 48 49 50

000
ASUS43 KTOP 201459
RWRKS

WEATHER ROUNDUP FOR KANSAS
NATIONAL WEATHER SERVICE GOODLAND KS
1000 AM CDT FRI APR 20 2018

NOTE:  "FAIR" INDICATES FEW OR NO CLOUDS BELOW 12,000 FEET WITH NO
SIGNIFICANT WEATHER AND/OR OBSTRUCTIONS TO VISIBILITY.

KSZ001>006-013>018-027>032-041>047-201600-
NORTHWEST KANSAS

CITY           SKY/WX    TMP DP  RH WIND       PRES   REMARKS
GOODLAND       CLOUDY    43  29  57 S30G39    30.12S
HAYS           CLOUDY    49  32  52 SE18      30.26F
HILL CITY      CLOUDY    47  31  53 SE18      30.26S
RUSSELL        CLOUDY    50  33  52 SE22      30.26F
$$

KSZ061>065-074>080-084>089-201600-
SOUTHWEST KANSAS

CITY           SKY/WX    TMP DP  RH WIND       PRES   REMARKS
DODGE CITY     CLOUDY    48  29  47 SE23G32   30.21F
GARDEN CITY    CLOUDY    45  29  53 SE24      30.18S
GREAT BEND     CLOUDY    50  31  48 SE21      30.26F
LIBERAL        CLOUDY    47  32  56 SE15G26   30.17S
$$

KSZ066>073-081>083-090>101-201600-
SOUTHEAST KANSAS

CITY           SKY/WX    TMP DP  RH WIND       PRES   REMARKS
CHANUTE        MOSUNNY   55  33  43 SE14      30.40F
COFFEYVILLE    CLOUDY    53  34  48 SE13      30.39F
HUTCHINSON     CLOUDY    53  32  44 SE20      30.31S
MEDICINE LODGE   N/A     50  33  52 SE16G25   30.26F
NEWTON         MOSUNNY   53  31  42 SE16      30.33F
PARSONS        MOSUNNY   53  32  44 SE9G17    30.40F
WICHITA INTL   CLOUDY    52  32  46 SE20      30.32F
WICHITA JABRA  MOSUNNY   53  32  44 SE17      30.33F
WINFIELD       CLOUDY    52  32  46 SE17      30.34F
$$

KSZ007>012-019>026-033>040-048>060-102>105-201600-
NORTHEAST KANSAS

CITY           SKY/WX    TMP DP  RH WIND       PRES   REMARKS
CONCORDIA      CLOUDY    50  30  46 SE21G28   30.33F
EMPORIA        MOSUNNY   52  32  46 SE17G24   30.37F
LAWRENCE       PTSUNNY   52  32  46 SE15G25   30.42F
MANHATTAN      MOSUNNY   53  31  42 SE20G25   30.36F
OLATHE IND     MOSUNNY   52  31  44 SE13G25   30.43F
OLATHE EXE     CLOUDY    50  33  52 SE14      30.43F
SALINA         CLOUDY    52  32  46 SE17      30.34S
TOPEKA BILLARD CLOUDY    52  32  46 SE18G25   30.41F
TOPEKA FORBES  MOSUNNY   53  32  44 SE14      30.39F
$$




USA.gov is the U.S. government's official web portal to all federal, state and local government web resources and services.